User: anonymous   Login
Location: Mentone
(34.5413°N, 85.5351°W)
Time: 14:35:35
(UTC-06:00)
Language:

ERBS - Orbit

View from above orbital plane
View from above orbital plane
View from above satellite
View from above satellite

Ground track
Ground track

The orbit data is extracted from the following two-line orbital elements,

1 15354U 84108B   14323.14897102  .00019046  00000-0  63255-3 0  6399
2 15354 057.0130 200.8981 0020911 118.1999 242.1166 15.31111076653333
Epoch (UTC): 19 November 2014 03:34:31
Eccentricity: 0.0020911
inclination: 57.0130°
perigee height: 458 km
apogee height: 487 km
right ascension of ascending node: 200.8981°
argument of perigee: 118.1999°
revolutions per day: 15.31111076
mean anomaly at epoch: 242.1166°
orbit number at epoch: 65333

The dashed part of the orbit path shows where the satellite is in the earth's shadow,  

DLR